TimePDT,TemperatureF,Dew PointF,Humidity,Sea Level PressureIn,VisibilityMPH,Wind Direction,Wind SpeedMPH,Gust SpeedMPH,PrecipitationIn,Events,Conditions,WindDirDegrees,DateUTC
12:53 AM,43.0,35.1,74,30.10,10.0,ENE,6.9,-,N/A,,Overcast,70,2013-03-25 07:53:00
1:53 AM,43.0,35.1,74,30.10,10.0,NE,8.1,-,N/A,,Overcast,50,2013-03-25 08:53:00
2:53 AM,39.9,35.1,83,30.08,10.0,ENE,6.9,-,N/A,,Mostly Cloudy,70,2013-03-25 09:53:00
3:53 AM,41.0,35.6,81,30.07,10.0,NE,6.9,-,N/A,,Overcast,50,2013-03-25 10:53:00
4:53 AM,39.9,35.1,83,30.07,10.0,ENE,6.9,-,N/A,,Mostly Cloudy,70,2013-03-25 11:53:00
5:53 AM,39.9,35.1,83,30.07,10.0,ENE,10.4,-,N/A,,Overcast,70,2013-03-25 12:53:00
6:53 AM,39.9,35.1,83,30.06,10.0,ENE,6.9,-,N/A,,Overcast,60,2013-03-25 13:53:00
7:53 AM,39.9,35.1,83,30.06,10.0,NE,9.2,-,N/A,,Overcast,50,2013-03-25 14:53:00
8:53 AM,43.0,36.0,76,30.06,10.0,East,8.1,-,N/A,,Mostly Cloudy,80,2013-03-25 15:53:00
9:53 AM,45.0,37.9,76,30.04,10.0,East,10.4,-,N/A,,Overcast,90,2013-03-25 16:53:00
10:53 AM,48.0,37.9,68,30.04,10.0,East,8.1,-,N/A,,Overcast,90,2013-03-25 17:53:00
11:53 AM,52.0,37.0,57,30.03,10.0,East,10.4,-,N/A,,Clear,80,2013-03-25 18:53:00
12:53 PM,54.0,37.0,53,30.01,10.0,East,11.5,-,N/A,,Clear,80,2013-03-25 19:53:00
1:53 PM,57.0,36.0,45,30.00,10.0,East,11.5,-,N/A,,Clear,80,2013-03-25 20:53:00
2:53 PM,57.0,35.1,44,29.98,10.0,East,4.6,-,N/A,,Clear,80,2013-03-25 21:53:00
3:53 PM,57.9,35.1,42,29.97,10.0,Calm,Calm,-,N/A,,Clear,0,2013-03-25 22:53:00
4:53 PM,59.0,36.0,42,29.96,10.0,Calm,Calm,-,N/A,,Partly Cloudy,0,2013-03-25 23:53:00
5:53 PM,55.0,39.0,55,29.95,10.0,West,6.9,-,N/A,,Mostly Cloudy,280,2013-03-26 00:53:00
6:53 PM,51.1,39.9,66,29.96,10.0,WSW,10.4,-,N/A,,Scattered Clouds,250,2013-03-26 01:53:00
7:53 PM,50.0,37.0,61,29.96,10.0,WSW,4.6,-,N/A,,Overcast,240,2013-03-26 02:53:00
8:53 PM,48.0,43.0,83,29.97,10.0,SW,6.9,-,N/A,,Overcast,220,2013-03-26 03:53:00
9:53 PM,48.0,42.1,80,29.98,10.0,WSW,5.8,-,N/A,,Overcast,240,2013-03-26 04:53:00
10:53 PM,48.0,43.0,83,29.99,10.0,SW,5.8,-,N/A,,Overcast,220,2013-03-26 05:53:00
11:53 PM,48.0,43.0,83,29.99,10.0,SSW,5.8,-,N/A,,Overcast,210,2013-03-26 06:53:00